ONEWEB-0126 (47272 NORAD) Tracking and Keplerian Element Data

This shows tracking and keplerian element data for the satellite.

Feedback or suggestion? Click here.




ElementValue
Catalog47272
NameONEWEB-0126
Epoch Orbit1705
Epoch Day106.25002315
Epoch Year2021
RAAN6.091
Inclination87.9354
Eccentricity0.0001748
Argument of Perigee94.6125
Mean Anonmoly81.9872
Mean Motion13.22932093
Decay Rate-0.00015839
L11 47272U 20100Q 21106.25002315 -.00015839 00000-0 -37822-1 0 9994
L22 47272 87.9354 6.0910 0001748 94.6125 81.9872 13.22932093 17055

Live tracking and technical data element details for ONEWEB-0126 (NORAD 47272). ONEWEB-0126 can be tracked NOW for your location showing map with azimuth and elevation plus other details from your city location.

Track the satellite on the map from your city or location and see movement details for azimuth, elevation, latitude, longitude, range, height, and movement on the map or in text.







IsCatalogInMostPopularTable: catalog: 47272, numindb: 41
Update: records affected: 1



GetName: 47272 ONEWEB-0126

Hit Count: updated at: Fri, 16 Apr 2021 10:55:06 GMT